Hourly Data Report for May 29, 2015

All times are specified in Local Standard Time (LST). Add 1 hour to adjust for Daylight Saving Time where and when it is observed.

Metadata including Station Name, Province, Latitude, Longitude, Elevation, Climate ID, WMO ID, TC ID
SASKATOON INTL A
SASKATCHEWAN
Latitude: 52°10'15.000" N Longitude: 106°42'00.000" W Elevation: 504.10 m
Climate ID: 4057152 WMO ID: TC ID: YXE
Hourly Data Report for May 29, 2015
Temp Definition
°C

Dew Point Temp Definition
°C

Rel Hum Definition
%

Wind Dir Definition
10's deg
Wind Spd Definition
km/h

Visibility Definition
km

Stn Press Definition
kPa

Hmdx Definition

Wind Chill Definition

Weather Definition

00:00 Legend Double Dagger 2.2 -1.8 75 2 13 24.1 96.78 Mainly Clear
01:00 Legend Double Dagger 1.0 -2.1 80 4 15 24.1 96.78 LegendNANA
02:00 Legend Double Dagger 0.4 -2.3 82 2 12 24.1 96.82 LegendNANA
03:00
04:00 Legend Double Dagger -1.8 -2.8 93 2 4 24.1 96.89 -3 LegendNANA
05:00 Legend Double Dagger -0.9 -2.0 92 3 3 24.1 96.91 -2 LegendNANA
06:00 Legend Double Dagger 0.2 -1.6 88 4 5 24.1 96.95 Mainly Clear
07:00 Legend Double Dagger 4.1 -0.7 71 6 4 24.1 96.98 LegendNANA
08:00 Legend Double Dagger 5.3 -2.3 58 6 8 24.1 97.01 LegendNANA
09:00 Legend Double Dagger 6.9 -3.1 49 36 3 24.1 97.02 Mainly Clear
10:00 Legend Double Dagger 8.7 -3.5 42 12 5 24.1 97.03 LegendNANA
11:00 Legend Double Dagger 9.0 -4.6 38 6 12 24.1 97.01 LegendNANA
12:00 Legend Double Dagger 9.4 -4.9 36 3 13 24.1 96.99 Mainly Clear
13:00 Legend Double Dagger 10.9 -5.6 31 11 4 24.1 96.95 LegendNANA
14:00 Legend Double Dagger 10.9 -6.0 30 1 5 24.1 96.90 LegendNANA
15:00 Legend Double Dagger 12.1 -5.4 29 19 4 24.1 96.85 Mainly Clear
16:00 Legend Double Dagger 13.4 -5.7 26 14 19 24.1 96.81 LegendNANA
17:00 Legend Double Dagger 13.2 -4.4 29 6 13 24.1 96.78 LegendNANA
18:00 Legend Double Dagger 12.6 -5.4 28 5 8 24.1 96.75 Mostly Cloudy
19:00 Legend Double Dagger 12.4 -4.7 30 10 12 24.1 96.76 LegendNANA
20:00 Legend Double Dagger 11.4 -3.9 34 11 14 24.1 96.77 LegendNANA
21:00 Legend Double Dagger 8.6 -3.3 43 10 15 24.1 96.76 Mostly Cloudy
22:00 Legend Double Dagger 7.6 -3.6 45 11 16 24.1 96.77 LegendNANA
23:00 Legend Double Dagger 8.1 -3.7 43 13 22 24.1 96.76 LegendNANA

Notes on Data Quality.

Legend
  • E = Estimated
  • M = Missing
  • NA = Not Available
  • ‡ = Partner data that is not subject to review by the National Climate Archives